Theta_e
315 316 317 317 317 318 318 317 317 317 317 316 316 316 314 314 313 317 317 311 310 313 313 314 314 314 314 314 314 314 314 314 313 313 313 313 314 313 313 314 314 312 310 309 307 306 305 304 303 301 300 300 299 299 298 298 298 297 297 297 296 296 295 295 294 294 294 293 293 293 293 293 292 292 292 290 289 289 290 290 289 288 288 288 288 288
315 316 317 317 317 317 318 318 318 317 316 316 315 314 314 315 315 318 316 310 309 311 313 314 314 314 314 314 314 314 314 313 313 314 314 314 314 314 315 314 314 313 311 309 307 306 305 303 302 300 300 299 299 299 298 298 298 297 297 297 296 295 295 294 294 294 294 294 294 294 294 294 293 293 292 291 291 290 289 289 288 288 288 288 288 288
316 316 316 316 316 317 317 316 316 316 316 316 315 315 314 315 317 318 314 309 308 310 312 314 313 313 314 314 314 313 313 314 314 314 314 315 314 315 315 315 315 313 310 308 306 306 305 303 302 300 299 299 299 298 297 297 298 297 297 296 296 295 294 294 294 294 294 294 294 294 294 294 293 292 292 292 292 290 289 288 288 288 288 288 287 287
316 316 316 316 316 316 316 315 314 315 315 316 316 315 315 316 318 316 313 310 309 310 312 313 312 313 314 314 314 314 314 314 314 315 315 316 316 316 316 317 316 312 309 308 306 305 304 303 301 300 299 299 299 298 297 297 297 297 297 296 296 295 294 294 294 294 294 294 294 293 293 293 292 292 291 290 290 289 288 288 288 288 287 287 287 287
316 316 315 315 316 316 316 315 314 314 314 316 317 316 316 317 317 317 316 313 312 312 311 311 313 313 314 316 315 315 315 314 314 314 314 315 316 316 317 317 316 313 311 310 307 305 303 303 301 300 299 299 298 298 297 297 297 297 296 296 296 295 294 294 294 293 294 293 292 292 292 291 291 291 290 290 289 289 288 288 288 288 287 287 287 286
315 315 314 315 315 315 316 315 315 316 314 315 318 318 317 317 317 318 318 316 315 315 312 312 314 314 314 316 317 316 314 313 314 313 313 313 314 315 316 317 316 313 312 311 308 306 304 303 302 301 299 299 298 298 297 297 297 296 296 296 296 295 294 294 294 293 293 292 292 291 291 291 291 291 291 291 291 291 290 289 289 288 288 287 286 286
315 313 313 316 317 317 316 315 316 317 315 314 318 320 318 318 318 318 318 317 316 315 313 312 314 315 314 314 315 316 314 313 315 316 316 314 314 315 316 317 315 313 312 311 309 306 304 303 302 301 300 299 298 298 297 297 296 296 296 296 295 295 294 294 293 292 292 292 292 291 291 291 292 292 292 292 292 292 291 290 289 288 287 287 286 285
316 314 313 315 317 317 317 316 317 317 316 316 318 319 317 317 318 318 318 316 315 315 314 313 314 316 315 314 315 314 313 313 313 315 316 315 315 315 315 317 315 313 312 311 309 306 304 303 302 301 300 299 298 297 297 297 296 296 296 295 295 295 294 294 293 292 292 292 292 292 292 292 293 293 293 293 292 291 290 289 288 288 287 287 286 285
318 317 316 316 315 317 317 317 318 318 317 317 315 315 315 315 316 316 316 315 315 316 316 315 315 316 316 315 315 315 312 312 313 313 314 314 315 315 316 317 314 313 313 311 309 307 305 304 303 302 300 299 298 297 297 297 296 296 296 295 295 295 294 293 293 292 291 292 292 292 292 293 293 293 293 292 291 290 289 288 288 287 287 286 286 285
316 312 313 315 316 318 315 313 315 318 317 314 312 313 313 313 314 314 314 314 314 316 317 317 315 316 316 314 314 314 312 312 313 313 314 314 315 317 317 318 314 312 312 311 309 308 306 305 303 302 301 299 298 297 297 297 296 296 295 295 295 294 294 293 293 292 291 291 291 292 292 292 292 292 291 291 290 289 289 288 288 287 287 287 286 285
311 306 309 314 315 314 311 307 309 313 313 311 313 314 314 313 312 312 313 312 314 317 318 317 315 316 317 315 313 314 313 313 315 314 314 315 315 317 319 318 314 312 311 310 309 308 307 305 303 302 301 299 298 297 297 297 296 296 295 295 295 294 294 293 292 292 291 291 291 292 292 292 292 291 291 290 290 289 288 288 288 287 287 287 286 285
312 309 310 313 312 310 310 309 308 308 310 312 314 314 315 315 313 313 313 312 316 319 317 316 317 317 316 314 313 314 314 314 315 314 314 315 315 318 320 317 313 312 311 310 309 308 306 305 303 302 301 299 298 297 297 297 296 296 295 295 295 294 294 293 292 292 291 291 291 291 291 291 291 291 290 290 290 289 288 288 288 287 287 286 286 285
317 315 314 313 310 309 313 313 309 307 309 312 313 313 316 317 316 317 316 315 317 318 315 314 318 319 316 314 313 314 314 313 314 314 314 315 314 317 322 318 313 311 311 309 308 307 306 304 303 302 301 299 298 298 297 297 296 296 296 295 295 294 293 293 292 292 291 291 290 291 290 291 291 290 290 289 289 289 288 288 288 287 286 286 286 285
319 318 316 314 311 310 313 314 314 312 309 311 313 314 317 317 319 321 319 318 319 317 313 312 315 317 314 312 314 314 313 314 313 314 316 316 315 319 323 318 313 311 310 309 308 307 306 305 303 302 301 299 298 298 297 297 296 296 296 295 295 294 293 293 292 292 291 291 290 290 290 290 290 289 289 289 288 288 288 287 287 286 286 285 285 284
318 318 316 317 315 312 312 314 316 316 311 311 313 315 316 317 318 318 317 317 318 316 313 311 312 313 310 311 315 314 313 314 313 314 317 318 320 322 319 315 313 311 310 310 308 307 306 305 304 302 301 300 299 298 297 297 296 296 296 295 295 294 293 293 292 291 291 291 290 289 289 289 289 288 288 288 287 287 287 286 285 285 285 284 284 283
316 318 319 317 315 313 313 315 316 316 314 312 313 314 316 316 316 316 316 316 315 314 315 312 312 311 310 313 315 314 314 314 313 314 316 317 319 320 316 313 312 311 309 309 308 308 306 305 304 303 301 300 299 298 297 296 296 296 295 295 295 294 293 293 292 291 291 290 290 289 289 288 288 288 287 287 286 286 286 285 284 284 284 283 283 283
315 318 319 313 311 309 308 312 314 315 315 314 313 315 315 315 316 317 318 316 313 314 316 314 313 312 312 313 314 313 314 313 313 313 313 315 316 318 317 315 313 311 310 309 308 308 306 305 304 303 301 300 299 298 297 296 296 296 295 295 294 294 293 292 292 291 290 290 289 289 288 288 287 287 287 286 286 285 285 284 284 283 283 283 283 283
316 317 317 313 312 307 303 307 311 310 312 313 313 315 314 313 314 315 317 316 315 317 316 314 314 312 311 312 313 313 313 312 312 312 313 314 315 317 318 318 315 313 311 309 308 308 307 305 304 303 302 300 299 298 297 296 296 296 295 295 294 294 293 292 291 291 290 290 289 288 288 287 287 286 286 285 285 284 284 283 283 283 282 282 282 282
318 317 317 311 310 307 303 307 311 309 309 309 310 312 312 313 314 314 316 316 315 317 316 313 312 311 311 312 312 312 312 312 312 312 313 313 314 315 316 316 315 313 312 310 308 307 306 305 304 304 302 300 299 298 297 296 296 295 295 295 294 293 293 292 291 290 290 289 289 288 287 287 286 286 285 284 284 284 283 283 283 283 282 282 281 280
317 316 317 308 305 308 306 308 312 311 308 306 307 310 310 311 313 313 315 315 314 315 314 314 314 312 313 313 313 312 312 312 312 312 313 312 312 313 314 315 315 315 316 314 311 309 307 305 304 303 302 300 299 298 297 296 295 295 295 294 294 293 293 292 291 290 289 289 288 287 287 286 285 285 284 284 283 283 283 283 283 282 281 281 280 279
315 315 316 308 304 308 309 309 312 313 312 308 308 310 310 310 310 311 313 313 313 314 314 314 314 312 312 313 315 313 312 313 313 313 314 313 312 312 313 315 316 318 319 316 313 312 309 306 304 303 301 300 299 298 297 296 295 295 295 294 294 293 292 291 291 290 289 288 288 287 286 285 285 284 284 283 283 282 282 282 282 281 281 280 279 279
315 315 316 312 308 310 312 312 313 314 314 312 310 311 311 311 311 312 315 314 313 314 314 314 314 313 312 313 313 312 312 313 313 313 315 314 313 312 313 315 315 318 319 317 314 313 311 309 305 302 300 299 298 297 296 295 295 294 294 294 293 293 292 291 290 289 289 288 287 286 286 285 284 283 283 282 282 282 282 282 281 281 280 279 279 278
317 316 316 315 315 315 314 311 311 312 312 312 312 313 312 312 313 314 316 315 313 313 313 314 315 314 313 313 312 311 311 311 311 312 313 314 314 313 314 315 315 317 318 315 314 313 312 310 306 301 299 298 297 296 296 295 295 294 294 293 293 292 292 291 290 289 288 287 286 286 285 284 283 282 282 281 281 281 281 281 280 280 279 278 278 277
317 316 314 315 315 316 314 308 305 306 308 310 312 312 313 313 313 314 314 314 314 314 313 314 315 315 314 314 313 312 312 311 311 311 311 312 313 313 314 315 315 316 316 314 313 312 311 309 305 301 299 298 297 296 295 295 294 294 293 293 292 292 291 291 290 289 288 287 286 285 284 283 282 282 281 281 280 281 281 280 279 279 278 278 277 276
314 315 314 315 315 316 315 310 308 307 307 309 310 311 313 314 314 315 313 311 313 315 314 314 314 314 314 316 314 313 313 311 310 310 311 311 312 312 313 315 315 316 315 313 312 311 309 307 303 301 299 298 297 295 295 294 294 293 293 293 292 292 291 290 289 288 287 286 285 284 283 282 281 281 280 280 280 280 280 279 278 278 278 277 276 276
314 315 314 314 315 316 316 314 314 311 307 308 310 311 313 314 313 314 313 312 314 314 314 314 314 313 313 314 313 312 312 311 309 310 310 310 312 313 313 316 316 315 314 313 312 310 308 305 302 300 299 297 296 295 294 294 293 293 293 292 292 291 290 289 288 287 286 285 284 283 282 281 280 280 280 280 280 280 279 278 278 277 276 276 276 275
316 316 313 313 314 314 314 315 314 313 310 309 310 310 311 313 314 314 313 314 314 313 313 314 314 313 313 312 312 312 312 311 311 311 310 309 311 313 314 316 316 315 314 313 311 310 308 305 302 300 298 297 296 294 294 293 293 292 292 292 291 291 290 288 288 286 285 284 283 282 281 280 280 279 279 279 279 279 278 278 278 276 276 276 276 276
314 315 313 313 313 312 312 312 312 313 312 311 312 311 311 312 314 315 314 314 313 314 314 314 314 315 314 312 312 312 312 312 312 311 311 310 311 312 313 314 314 313 313 312 310 309 307 305 303 300 298 297 295 294 293 292 292 292 291 291 291 290 289 287 286 285 284 283 282 281 280 280 279 279 279 279 278 278 277 277 276 276 276 276 276 276
311 312 313 313 313 312 311 312 311 312 312 312 313 313 312 312 313 314 314 313 314 314 314 314 314 315 314 312 312 312 312 312 311 310 311 310 311 312 312 311 311 311 310 310 309 309 307 306 304 301 299 297 295 294 293 292 292 291 291 290 290 288 287 287 285 284 283 282 282 281 280 279 279 278 278 278 278 277 276 276 276 276 276 276 276 276
310 312 313 313 313 313 313 312 312 312 312 311 312 313 314 313 312 313 313 313 313 313 313 313 314 314 313 312 312 312 311 311 311 310 311 311 311 312 311 311 310 309 309 309 309 308 308 307 305 303 301 299 296 294 293 292 291 291 290 290 288 287 287 286 285 283 282 282 281 280 279 279 278 278 278 278 277 276 276 275 275 276 276 276 276 276
311 311 313 313 313 313 313 313 312 312 312 312 312 313 313 312 312 312 313 313 313 313 313 313 314 313 312 312 311 311 311 311 310 310 311 311 311 311 310 310 310 309 309 309 309 309 308 306 305 304 302 300 297 295 293 292 291 291 290 289 288 286 286 285 284 283 282 281 280 280 279 278 278 277 277 277 276 276 275 275 276 276 276 276 275 275
310 311 311 312 313 313 313 313 313 312 312 313 312 312 312 311 312 312 312 313 313 313 313 313 314 313 311 311 311 311 310 310 310 310 310 310 310 310 310 310 310 309 309 310 310 310 308 306 305 304 303 301 298 295 293 292 291 290 289 288 287 286 285 284 283 282 281 280 280 279 278 278 277 277 276 276 275 275 275 275 276 276 275 275 275 275
309 310 311 312 313 313 313 313 313 313 314 314 313 312 311 311 311 311 312 312 312 312 313 313 312 311 311 311 311 310 310 310 310 310 310 310 310 310 310 310 310 310 310 310 310 310 309 308 305 304 303 302 299 296 294 293 291 290 289 288 286 285 283 283 282 281 281 280 279 278 278 277 277 276 275 275 275 275 275 276 276 275 275 275 274 274
310 310 311 312 313 314 313 313 313 314 315 315 314 312 311 311 311 311 312 311 311 311 311 311 311 310 310 310 310 310 310 310 310 310 311 311 311 311 311 310 310 310 310 310 310 310 309 308 307 305 303 301 299 297 295 293 291 290 289 287 285 284 283 282 281 281 280 279 278 277 277 277 276 276 275 274 274 275 275 275 275 275 274 274 274 274
311 310 310 312 313 313 313 314 315 316 315 314 313 312 310 310 311 311 311 311 310 311 311 311 311 310 310 310 310 310 310 310 311 311 311 311 311 311 311 311 310 310 310 310 309 309 308 308 308 306 303 300 299 296 294 292 291 289 288 286 284 283 282 281 280 280 279 278 277 277 276 276 275 275 274 274 274 274 275 275 274 274 273 273 273 273
311 311 311 311 312 313 314 315 316 316 313 311 312 311 310 311 311 311 312 311 310 310 311 311 311 310 310 311 311 311 311 311 311 311 311 311 311 311 311 310 310 309 309 309 309 308 308 308 307 305 302 299 297 295 293 291 290 288 286 284 283 282 281 281 280 279 278 277 276 276 275 275 275 274 273 273 274 274 274 274 274 273 273 272 271 270
311 311 312 312 313 314 314 313 315 316 314 312 312 312 311 311 311 312 313 313 310 310 311 310 311 311 311 311 311 311 311 311 311 311 311 311 311 311 311 310 310 309 309 309 308 308 307 306 305 303 300 297 295 293 292 290 289 287 284 282 282 281 280 279 279 278 277 276 275 275 275 275 275 274 273 273 273 273 273 273 273 273 272 271 270 269
311 311 312 313 314 314 314 314 315 315 315 315 314 313 311 311 311 312 314 314 312 310 311 311 311 311 311 311 311 311 312 312 311 311 311 310 311 311 311 310 310 309 309 308 308 308 306 303 302 301 299 296 294 292 291 289 287 285 283 281 280 280 279 278 278 277 276 275 275 274 274 275 275 274 274 273 273 273 273 273 273 272 271 271 269 268
311 311 312 313 314 314 315 316 315 315 315 314 314 312 312 312 312 312 314 315 313 311 311 311 311 311 311 311 311 311 312 312 311 311 310 310 310 310 310 310 309 308 308 307 307 307 305 301 299 298 296 294 292 291 290 288 286 284 281 280 279 279 278 277 277 276 276 275 274 274 274 275 275 274 274 273 273 273 273 272 272 271 271 270 269 268
311 311 311 312 313 313 314 315 315 315 315 315 313 311 311 312 311 314 315 316 313 311 311 311 311 311 311 311 311 312 312 312 311 311 311 311 310 310 310 309 309 308 309 308 306 304 302 298 297 296 295 293 291 290 288 287 285 283 281 279 278 278 277 277 276 276 275 274 274 274 274 274 274 274 273 273 273 273 272 272 271 270 270 269 268 267
312 311 312 312 312 312 313 315 315 314 314 314 312 311 311 312 312 314 315 314 311 311 311 311 311 312 311 311 311 311 311 311 310 310 310 310 310 309 309 309 308 308 306 305 303 300 297 295 295 295 294 293 291 288 287 285 284 282 280 279 278 278 277 277 276 275 274 273 273 272 272 273 273 273 273 273 273 272 271 271 270 270 269 268 267 266
313 312 312 313 313 312 313 314 314 314 314 312 311 311 312 313 313 314 313 311 310 311 311 311 311 311 311 311 310 311 311 310 310 310 309 309 309 309 308 307 307 305 302 299 297 296 294 294 293 293 292 291 289 287 285 284 283 281 280 278 278 277 277 276 274 274 273 272 272 271 271 271 272 272 272 272 272 272 270 269 269 269 268 267 266 266
313 313 312 313 313 313 313 313 314 314 315 313 312 312 312 313 313 312 311 311 312 311 311 311 311 311 311 311 311 311 311 310 310 309 309 309 308 308 308 307 306 304 301 299 297 295 293 294 294 292 290 288 286 285 285 284 283 281 279 278 277 276 275 274 273 273 272 271 270 270 270 270 271 271 271 271 271 270 269 268 268 268 267 266 266 266
314 314 314 313 312 313 314 314 314 313 313 312 312 312 312 312 311 311 311 312 312 312 312 311 311 311 312 311 311 311 310 310 309 309 309 309 308 308 308 307 305 302 300 299 297 293 292 294 294 290 287 285 284 283 283 283 282 280 278 278 276 275 274 273 272 272 270 269 269 269 269 269 270 270 270 270 270 269 268 267 267 267 266 266 266 266
313 312 312 312 312 312 313 313 312 311 311 311 312 312 312 311 311 311 311 311 311 312 311 311 312 312 311 311 312 310 309 309 309 308 308 308 308 308 308 307 305 301 299 297 294 291 291 293 293 289 285 282 281 281 282 282 281 279 278 277 275 273 273 271 271 270 269 268 268 268 268 268 268 269 269 269 270 269 267 266 266 266 265 266 266 267
308 307 307 308 310 311 312 312 311 310 310 310 311 310 310 310 309 309 309 310 309 309 308 308 309 309 309 309 309 308 307 307 307 307 307 307 307 307 307 307 304 300 298 297 295 291 289 290 290 288 285 281 279 280 281 282 281 278 277 275 273 272 272 270 269 269 268 267 267 267 267 267 267 267 268 269 269 268 267 267 266 265 266 266 267 267
305 305 303 303 306 309 310 310 309 307 307 308 308 308 308 309 309 308 308 309 308 308 307 306 306 306 306 307 307 307 307 307 307 307 307 307 307 307 307 307 305 301 299 298 294 289 288 289 289 288 285 282 279 278 279 280 280 278 275 273 272 271 271 270 269 267 266 266 266 266 267 268 267 266 267 267 267 266 266 266 266 266 266 267 267 267
302 302 299 299 302 303 303 303 303 303 305 307 308 308 309 310 310 309 309 309 309 308 308 308 308 308 308 308 308 308 308 307 307 307 308 307 308 308 307 307 306 303 300 296 291 287 288 290 289 286 285 281 278 277 278 279 278 276 274 272 270 270 270 269 268 267 266 266 266 266 266 266 266 266 265 265 265 265 265 266 266 266 267 267 267 267
297 297 296 297 297 297 297 297 298 300 301 304 307 308 309 309 309 308 307 307 307 307 308 308 309 309 309 308 308 308 308 307 306 307 307 307 307 306 306 306 306 304 301 296 290 286 288 289 288 286 284 281 277 276 277 278 276 274 272 270 270 270 269 268 267 267 265 265 265 264 264 265 265 265 265 265 265 265 266 266 266 266 267 267 266 267
294 294 294 295 295 295 295 296 297 299 301 303 305 305 304 303 303 302 302 302 302 303 304 305 305 306 306 306 306 306 307 306 305 305 305 305 305 305 305 305 305 304 302 297 290 286 286 286 286 285 282 278 276 275 276 276 274 272 271 270 270 270 269 267 266 266 265 264 264 264 264 264 264 265 265 265 265 265 266 266 266 266 266 266 267 268
294 294 294 295 296 296 296 297 298 299 300 301 300 298 297 297 297 297 297 297 297 298 298 299 300 301 302 303 304 305 305 305 304 304 305 304 304 304 304 304 304 304 304 299 293 289 288 285 283 283 281 277 275 275 275 273 271 270 269 269 270 270 270 268 266 264 264 263 264 264 264 264 264 265 265 264 265 265 265 265 266 266 267 267 267 268
Wind_Speed
3 5 7 9 12 13 13 15 16 16 14 13 12 10 13 13 13 17 8 5 6 5 10 14 16 19 20 18 17 17 16 17 18 18 17 17 15 13 15 16 15 14 10 11 16 21 23 23 22 23 22 23 24 24 24 26 26 26 25 26 25 24 23 21 21 20 19 17 16 15 14 13 13 13 12 12 12 11 11 11 11 10 10 11 12 12
3 6 11 17 17 14 10 9 11 14 13 12 12 11 12 12 13 16 5 6 6 4 9 13 15 19 18 17 17 17 18 18 18 20 20 19 16 13 14 16 14 10 7 10 13 17 21 21 22 23 21 23 26 25 27 27 27 26 26 26 25 25 24 22 21 21 20 18 17 16 15 14 13 13 12 10 11 12 12 13 12 10 11 12 12 12
6 10 18 21 12 5 3 4 8 13 13 11 9 8 10 10 12 11 2 6 5 4 7 11 13 16 18 19 19 19 19 17 18 21 20 18 16 14 14 13 11 9 9 10 12 14 18 20 21 22 21 23 26 26 27 27 27 26 25 25 25 25 25 22 22 22 20 18 17 15 15 14 12 12 13 12 12 13 13 12 12 11 12 12 12 12
8 10 15 13 5 5 7 6 7 10 9 9 8 7 10 10 9 7 2 4 6 7 7 11 12 13 16 18 19 22 21 17 17 19 18 16 15 15 14 10 8 10 11 11 13 13 15 18 21 22 21 22 24 24 26 27 27 27 26 26 25 25 24 22 22 22 19 18 18 16 16 16 13 11 14 15 14 14 13 12 13 12 12 12 12 12
14 9 2 2 4 7 10 7 8 8 7 9 10 10 11 12 12 11 3 2 7 8 4 8 11 11 12 15 15 14 14 13 13 13 14 15 14 13 13 9 7 10 11 11 13 14 14 17 20 22 21 22 23 25 26 28 28 26 26 26 25 24 24 22 23 23 20 20 22 20 17 16 14 12 12 13 12 13 13 12 13 13 13 12 12 13
16 7 5 4 5 6 9 9 10 9 7 9 12 15 17 15 15 14 6 6 8 7 2 3 10 8 7 10 10 5 6 8 8 9 12 13 12 11 11 9 8 10 9 10 12 14 14 15 18 21 21 22 24 25 26 27 27 25 25 26 25 24 24 22 24 26 24 24 24 22 18 15 14 13 12 12 11 11 12 12 12 12 13 13 13 13
8 3 4 7 8 7 9 11 12 10 8 8 6 8 13 14 14 14 8 4 6 7 1 2 7 9 5 7 8 6 6 9 7 8 11 10 9 10 9 8 9 10 9 10 11 13 14 14 16 19 22 24 24 24 25 25 26 25 25 27 26 24 24 24 27 29 28 25 22 21 19 16 14 13 12 12 11 10 10 9 11 12 13 14 14 13
5 5 4 7 8 8 9 10 11 11 9 5 1 2 4 7 10 9 7 6 7 8 4 4 4 12 9 6 10 9 9 10 9 11 12 10 10 11 11 8 10 10 10 10 11 13 14 15 16 19 22 24 24 24 24 25 27 27 27 28 27 26 26 28 31 31 30 25 21 20 19 15 14 13 11 11 11 11 11 11 12 12 12 13 14 13
3 6 7 9 8 8 8 4 3 11 9 2 3 3 2 0 3 4 5 6 7 8 7 7 8 10 11 5 12 14 12 12 13 15 15 12 12 12 11 8 10 10 11 11 11 13 14 15 18 20 22 23 24 25 25 27 27 27 27 28 28 27 26 29 32 32 30 27 23 21 19 15 14 12 11 10 10 11 12 13 13 12 12 13 14 14
2 1 2 7 8 7 3 4 4 5 6 2 4 4 5 3 1 1 4 5 6 9 10 9 11 8 11 3 11 12 11 11 12 12 13 12 11 10 8 8 9 9 9 10 11 12 13 15 18 19 20 21 23 25 25 26 27 27 28 28 29 29 26 28 32 32 31 28 24 21 19 17 15 13 12 11 10 11 11 12 12 12 12 11 11 12
2 3 1 4 6 2 4 6 5 3 2 5 5 3 2 2 2 2 4 2 6 11 11 13 16 11 10 2 10 9 10 13 11 9 11 10 10 9 7 7 8 9 8 9 10 10 11 14 17 18 19 21 22 24 24 25 27 28 29 29 30 30 26 27 32 33 31 29 26 21 20 19 17 15 15 13 12 12 12 12 12 12 11 10 11 11
7 5 3 2 2 3 5 4 3 3 2 4 3 2 2 4 2 3 4 2 6 10 5 12 19 17 11 4 7 9 12 15 11 8 10 8 8 7 6 7 8 9 9 9 9 9 11 12 15 17 19 21 22 23 25 26 27 28 29 30 30 30 28 28 32 32 30 30 27 22 21 21 19 18 18 16 14 14 14 12 11 11 10 10 11 11
7 8 8 3 1 5 6 3 2 3 3 4 5 5 4 4 3 4 5 4 8 8 3 9 13 14 13 9 7 8 10 13 10 7 9 8 8 6 6 7 7 8 9 9 9 9 10 11 12 15 18 21 22 24 26 26 28 28 29 31 31 31 30 28 30 31 30 31 28 24 24 23 21 20 20 19 17 15 14 13 12 12 11 10 10 10
3 3 8 7 2 7 11 8 5 4 7 8 8 7 6 5 5 6 6 6 9 8 3 7 5 7 8 8 14 17 14 14 12 9 8 8 8 4 4 7 6 7 8 8 9 9 10 11 11 13 17 20 21 23 26 27 28 28 28 30 31 31 30 28 28 30 30 29 28 28 27 24 24 23 22 21 19 17 15 14 14 14 13 12 11 11
6 6 8 10 4 10 16 13 5 3 7 10 8 7 7 6 6 6 7 8 8 6 1 5 3 5 3 1 12 19 18 16 12 9 8 8 6 2 3 5 6 7 7 7 8 9 10 11 12 13 17 19 21 23 25 26 27 27 28 31 32 31 30 30 29 30 30 29 29 30 29 27 26 26 24 23 20 19 18 17 17 16 16 15 14 13
7 9 6 6 2 11 13 9 4 4 4 7 6 7 8 6 7 8 8 6 3 7 5 5 4 6 5 2 7 11 14 16 13 11 9 8 6 5 3 5 6 7 7 7 8 10 11 11 11 13 16 18 20 22 25 26 28 29 29 31 32 32 32 32 32 32 31 31 31 32 31 29 28 26 25 23 21 21 21 20 20 19 18 17 15 14
5 5 5 4 1 5 3 2 3 2 2 5 6 7 4 1 4 7 9 3 1 7 8 5 6 8 8 7 8 11 13 16 15 13 12 11 9 7 5 6 6 7 8 8 8 9 10 11 11 14 16 18 20 22 26 28 30 31 30 31 32 32 31 32 33 33 32 32 32 32 32 31 29 28 27 25 23 23 22 22 22 20 19 18 16 15
6 4 3 4 2 2 3 4 1 2 1 4 5 4 1 2 1 4 7 4 4 10 9 8 12 11 8 7 9 14 15 17 16 14 13 12 9 8 7 6 7 8 8 8 8 8 9 10 11 14 17 19 22 24 26 27 28 29 29 31 32 33 33 33 35 35 34 35 34 33 33 32 30 30 28 26 24 24 23 23 23 21 19 17 16 15
3 4 2 2 1 2 2 2 3 2 1 1 2 1 1 2 4 6 6 5 7 9 9 14 19 14 10 7 6 14 17 16 16 14 12 11 9 8 8 7 8 9 7 8 8 8 8 9 11 14 17 19 21 22 23 24 26 28 28 31 33 33 33 34 36 36 36 37 37 35 35 33 31 30 29 28 26 25 25 24 22 21 19 16 15 15
3 4 3 1 1 2 3 4 5 5 4 1 3 3 1 2 3 5 5 4 7 8 9 15 18 12 10 7 8 15 17 16 15 13 11 11 11 9 7 7 9 8 7 8 8 8 9 10 12 14 17 19 20 20 21 24 27 28 27 31 33 31 32 35 38 39 38 38 38 36 35 33 32 31 30 29 28 27 26 24 22 20 18 16 15 15
2 4 5 1 1 3 5 7 9 10 8 6 5 6 6 3 1 2 4 5 6 7 7 9 13 12 6 2 8 13 13 13 13 11 9 8 10 10 8 8 9 7 6 7 7 7 8 9 10 13 16 18 19 20 22 25 27 28 28 32 33 32 35 39 40 41 40 39 38 38 36 34 32 32 30 30 29 28 26 24 22 20 18 16 15 15
3 5 7 3 3 6 7 7 10 10 8 8 9 10 10 9 5 3 7 6 4 5 8 7 12 15 4 5 5 7 6 7 9 10 7 7 9 9 9 9 10 8 7 7 8 7 8 8 8 11 14 16 18 19 21 24 26 28 29 32 33 34 39 42 41 42 42 39 39 39 37 35 33 32 31 30 29 28 26 24 22 20 18 17 16 16
2 2 7 7 6 6 4 2 2 3 1 3 6 8 9 10 9 7 7 5 3 4 8 8 12 16 4 8 6 5 6 4 6 8 7 7 9 9 9 10 10 8 7 7 8 8 8 7 6 9 12 14 17 18 19 22 25 27 27 30 33 35 40 43 42 42 42 40 39 39 37 35 34 32 31 30 29 28 26 24 22 20 19 18 17 16
2 1 6 8 5 4 2 1 1 1 1 4 6 7 9 10 11 9 6 3 3 6 8 9 11 14 5 6 3 2 4 5 6 7 9 9 8 9 11 11 10 8 7 8 8 7 7 6 6 7 9 11 14 17 19 21 22 24 25 28 31 33 35 40 42 41 42 40 39 38 36 35 34 33 32 31 30 28 26 24 22 21 20 18 17 16
3 4 7 6 6 6 5 5 4 3 5 7 8 10 11 12 11 7 3 1 4 12 17 12 9 12 8 2 5 9 6 7 9 10 10 9 8 9 10 9 9 8 8 8 8 9 9 7 6 7 7 9 13 16 19 20 21 24 26 28 31 30 32 38 42 42 42 40 38 37 36 35 34 34 33 32 30 28 26 24 22 21 20 18 17 16
5 5 7 8 10 9 10 12 6 3 6 6 9 13 14 14 15 9 5 5 10 18 21 14 11 15 15 13 15 14 6 6 10 10 8 9 9 10 10 9 8 9 9 10 11 12 10 7 7 8 8 9 13 16 19 20 22 24 25 27 30 30 32 38 42 43 42 40 39 38 36 35 35 35 34 33 30 28 26 25 23 21 19 19 18 16
2 3 8 13 14 11 13 16 10 3 5 7 10 15 15 16 17 13 9 10 13 14 14 15 18 21 20 21 24 22 13 10 13 11 8 8 9 9 10 9 9 10 10 11 12 11 10 8 9 11 10 10 12 16 18 20 22 23 24 27 29 29 32 38 41 42 41 40 39 38 36 36 35 35 35 32 29 27 25 24 23 21 20 19 17 16
2 5 11 16 20 19 19 21 20 17 14 12 13 15 16 17 18 16 16 18 16 12 10 16 24 24 19 19 25 26 21 18 18 17 13 10 9 8 7 8 10 10 9 10 12 12 11 12 13 12 11 10 13 16 17 18 21 22 23 25 26 28 34 39 40 40 39 38 37 36 35 35 35 34 33 31 28 26 24 23 23 22 21 18 16 15
2 7 10 15 20 21 22 23 24 25 22 18 16 16 16 17 19 22 24 22 17 14 15 20 27 26 18 17 22 25 25 23 19 18 18 16 13 7 6 8 12 12 10 13 15 13 13 15 14 12 12 12 12 14 16 17 19 21 22 23 25 29 36 40 40 39 38 37 35 34 34 34 33 32 31 29 28 26 25 23 22 21 20 17 15 15
3 6 10 14 17 18 20 22 25 27 26 24 21 17 14 15 22 27 22 16 17 23 24 25 28 25 16 16 22 26 28 24 19 19 18 15 15 11 8 10 14 16 16 16 16 15 16 17 16 15 15 12 10 12 16 17 19 22 23 23 26 31 36 40 40 39 38 35 34 34 34 33 33 31 31 30 28 26 25 23 22 21 18 16 15 14
6 9 10 11 12 14 19 23 26 27 27 26 23 18 16 19 24 25 17 13 17 24 24 22 24 20 15 19 25 26 26 22 19 22 18 15 20 21 16 16 19 22 21 17 14 15 16 18 17 17 16 14 13 14 16 17 20 22 22 23 28 34 38 40 40 39 38 34 32 33 34 33 32 32 31 29 27 26 24 23 22 20 17 16 15 14
7 8 8 8 10 13 17 22 26 26 25 23 20 19 23 26 25 22 17 14 16 18 19 19 17 14 16 22 23 22 23 22 21 23 21 21 25 22 17 17 20 22 21 16 14 14 15 16 17 18 18 16 15 16 18 19 20 20 22 26 31 35 38 39 39 38 36 34 33 34 34 33 33 31 29 28 26 26 24 23 21 19 17 16 14 13
7 7 6 8 9 12 16 20 21 19 16 14 16 23 30 30 26 24 23 22 21 17 14 13 12 14 18 21 20 22 25 23 20 19 19 22 22 18 14 16 19 20 18 15 14 15 13 13 14 17 17 16 17 21 26 28 26 24 26 31 33 35 37 38 37 36 34 33 34 35 34 34 33 31 29 27 26 26 24 22 20 18 17 15 14 13
9 10 8 8 7 10 16 17 14 11 10 12 16 22 26 26 26 27 27 28 27 20 16 15 16 17 19 20 21 24 25 22 19 17 17 19 18 14 13 16 19 19 17 15 15 14 13 12 12 13 15 19 23 26 27 29 29 27 29 31 33 35 37 37 36 36 34 34 35 36 35 34 33 31 29 27 26 25 23 21 20 18 16 15 14 12
11 11 9 7 6 8 10 10 10 10 11 13 13 13 18 24 27 28 27 27 27 26 25 25 24 23 25 25 24 26 25 23 20 18 19 21 19 13 13 17 20 19 16 15 15 14 13 12 11 10 12 18 22 23 23 26 28 28 28 32 35 37 38 38 37 36 36 35 35 35 35 34 33 31 29 27 26 25 23 21 20 18 16 15 13 11
12 10 8 7 7 7 6 8 10 7 2 4 7 11 17 20 20 21 22 24 28 30 27 25 24 25 27 28 27 26 26 22 18 15 19 23 21 14 13 16 18 19 17 15 15 14 13 11 9 9 12 16 19 22 24 27 30 30 30 34 37 38 39 40 38 37 38 38 36 36 36 35 33 31 29 28 26 25 24 22 20 18 16 14 12 10
16 11 7 8 9 8 8 10 11 7 2 4 8 12 15 15 16 18 17 16 19 21 20 20 24 26 28 29 29 26 20 15 13 13 18 24 23 18 15 15 16 18 18 16 15 13 11 9 8 10 13 16 20 23 25 27 30 31 31 32 35 36 38 40 39 39 39 38 37 37 37 36 35 32 30 28 27 26 24 22 20 18 16 14 12 11
19 15 11 10 9 9 10 9 8 9 7 9 13 17 18 18 20 21 18 9 6 11 17 20 24 27 27 26 27 21 11 6 10 13 17 24 24 17 13 14 15 16 17 16 14 10 7 8 10 11 14 17 20 24 28 29 31 32 32 33 35 36 38 39 38 39 39 38 38 38 38 37 36 34 31 29 28 26 24 21 19 17 16 14 12 12
22 17 14 11 9 9 9 7 8 10 6 9 16 20 19 20 18 16 14 6 6 12 22 23 23 25 23 22 22 17 8 6 11 13 16 22 21 13 10 13 13 14 14 13 11 8 7 9 9 11 15 16 18 25 30 32 34 34 34 36 39 38 38 39 39 40 40 39 38 38 37 36 35 33 31 30 28 26 23 21 19 17 15 13 12 12
19 13 11 11 9 11 13 9 7 7 4 8 15 19 20 21 18 15 12 5 9 17 24 23 24 24 22 21 19 15 11 11 13 13 16 19 16 8 7 11 12 12 11 10 9 7 7 9 10 11 13 15 21 29 33 35 35 34 35 38 38 38 40 42 42 41 40 38 37 36 36 35 34 32 30 29 27 24 22 20 18 16 15 13 12 10
11 9 9 10 10 13 16 12 6 6 7 11 16 19 18 14 12 15 13 6 12 21 22 21 24 23 21 19 15 11 13 15 15 15 16 16 13 9 8 9 8 7 6 6 6 6 7 9 11 12 14 19 26 31 36 36 32 31 36 37 36 40 45 45 43 41 40 38 37 36 34 33 32 30 29 27 25 23 21 19 17 16 15 13 12 11
7 8 8 10 11 13 13 10 8 7 7 12 18 19 13 7 7 13 14 12 16 21 20 20 23 21 19 18 15 14 15 15 15 15 14 14 15 14 12 8 7 6 4 2 4 7 7 6 9 11 14 20 27 33 38 36 28 31 36 32 32 42 45 42 41 41 40 38 36 34 33 31 30 29 27 25 24 22 20 18 16 15 14 12 12 11
8 7 7 8 9 9 9 8 8 6 8 16 20 16 11 11 12 13 14 16 17 18 17 17 17 16 16 16 15 15 15 15 16 16 14 14 14 14 13 9 8 9 8 5 5 9 9 7 7 9 12 19 28 36 40 35 26 29 30 24 29 41 42 40 42 41 38 37 35 32 31 30 29 28 26 25 23 21 19 17 16 15 14 13 12 9
9 8 6 5 7 8 8 7 6 7 9 18 19 13 12 16 18 16 16 15 13 12 12 11 12 14 15 15 14 14 13 14 16 14 13 13 12 13 13 9 8 9 9 8 7 10 11 8 7 7 11 19 27 35 39 34 27 25 24 24 34 43 42 42 43 41 38 36 34 31 31 30 29 28 26 24 23 21 18 17 16 15 13 13 11 8
4 5 7 6 5 6 6 4 5 8 6 6 9 9 10 12 12 14 15 14 12 10 9 8 9 10 10 10 10 11 11 12 12 11 11 11 10 12 12 8 8 10 9 8 8 10 12 11 9 9 11 18 27 34 36 33 29 25 25 33 44 47 46 45 44 41 39 36 34 33 31 28 27 26 24 24 24 22 20 19 18 15 13 12 10 7
9 10 8 5 6 8 8 5 5 8 10 9 8 10 12 13 13 12 12 11 10 11 11 10 10 10 10 10 9 9 10 10 11 10 10 10 10 11 10 8 7 7 7 8 8 10 12 10 9 10 10 15 25 33 33 31 30 29 33 42 48 49 49 48 45 42 40 38 36 35 33 30 28 26 25 25 24 22 21 21 19 15 12 12 10 8
8 8 6 6 8 7 6 7 11 12 14 13 12 13 13 11 10 11 10 9 9 11 12 13 14 13 12 11 10 9 11 12 12 13 12 11 12 12 12 10 9 8 8 9 9 10 9 8 9 12 12 14 23 32 32 29 28 31 39 46 48 49 50 49 46 43 41 39 38 36 36 35 32 30 28 26 24 23 21 21 20 16 13 13 11 9
7 9 9 9 11 9 9 13 15 16 17 14 9 8 8 8 7 8 9 9 11 12 12 12 13 13 12 13 13 12 13 15 15 14 13 12 12 12 13 13 11 8 7 7 7 9 9 9 12 14 13 14 24 34 33 27 26 34 43 47 48 50 51 49 47 45 43 41 40 37 35 34 32 31 30 27 25 24 23 22 21 17 14 14 13 11
10 13 10 10 13 14 15 15 14 14 16 14 7 4 6 7 9 10 10 11 13 13 13 12 11 11 11 13 14 13 13 14 15 14 13 12 12 12 12 12 10 7 6 7 9 12 12 12 13 14 13 15 25 35 33 26 29 39 46 48 50 53 52 48 46 45 43 40 39 36 33 32 32 31 30 28 26 23 22 23 22 17 15 15 13 10
10 13 11 9 11 13 13 14 13 13 14 13 11 11 11 10 12 13 14 16 17 17 16 16 15 14 14 15 15 14 13 13 14 14 12 11 11 12 13 12 10 8 8 9 11 13 13 13 14 14 13 16 27 35 32 30 35 42 47 50 54 55 54 49 46 44 41 39 38 36 34 33 32 30 29 29 26 22 19 19 18 16 14 14 11 8
9 11 11 10 11 13 15 16 14 13 13 13 15 18 18 16 17 17 17 18 20 20 20 20 19 20 20 18 17 15 15 15 16 16 14 13 13 13 13 13 11 11 10 9 10 11 13 13 13 12 13 20 31 35 33 34 40 45 48 53 56 57 57 54 48 41 36 37 38 37 36 36 33 30 29 28 26 24 21 18 15 12 11 10 9 8
Wind_Direction
192 223 229 239 242 241 237 230 234 250 268 279 280 276 272 273 271 272 273 149 182 230 243 247 254 260 265 264 262 265 266 265 264 261 257 258 258 252 248 246 237 226 208 182 184 187 187 189 186 185 185 183 184 187 185 183 182 182 181 181 182 182 182 181 181 182 183 181 182 184 186 194 195 193 202 211 214 213 214 228 242 249 254 260 270 280
189 223 235 241 250 259 263 256 250 257 268 269 267 271 271 267 267 273 271 139 168 223 257 262 264 264 264 265 265 264 261 258 259 261 262 262 263 259 251 248 242 225 179 166 181 183 182 183 181 181 182 181 184 187 187 186 184 183 182 182 182 182 183 184 184 184 186 186 186 186 189 189 186 189 195 199 208 215 219 231 244 248 254 261 269 276
213 229 242 246 253 267 271 269 260 259 262 262 259 260 265 264 269 273 204 137 171 215 266 274 274 273 269 267 263 257 256 251 245 251 261 266 267 263 256 254 241 199 165 174 186 181 179 178 177 179 183 186 187 188 188 188 185 182 182 183 183 184 185 185 186 188 187 187 186 185 186 182 178 187 194 190 197 213 223 234 245 247 252 260 267 272
221 233 246 248 231 234 251 238 238 254 250 242 241 247 254 255 266 269 183 149 198 217 272 289 280 272 268 261 252 246 247 248 244 245 254 261 262 261 260 265 238 191 174 185 190 183 179 176 178 183 186 188 189 189 189 188 186 184 185 185 184 184 185 184 188 190 184 183 185 184 185 183 179 187 200 204 212 224 231 237 244 248 251 258 262 265
240 242 208 191 184 227 249 227 214 238 244 231 226 233 248 251 255 263 284 345 254 234 252 293 282 264 254 250 244 235 232 241 247 244 247 252 255 256 260 264 231 195 183 190 191 185 182 180 185 189 188 187 189 191 190 188 187 187 187 186 183 184 184 184 189 188 182 185 189 187 188 189 189 193 204 212 218 225 231 234 239 246 250 253 258 261
249 239 130 189 211 213 236 240 226 228 250 243 223 228 243 256 262 266 296 355 296 265 157 327 300 271 227 235 237 191 185 218 227 236 240 243 245 246 252 245 209 194 194 197 192 184 184 185 188 190 189 189 191 193 191 188 188 187 186 185 182 184 184 185 191 190 188 192 192 189 188 189 192 197 204 207 206 207 218 228 232 242 248 252 256 260
248 201 135 226 231 216 230 250 239 222 244 250 231 238 245 255 264 266 281 302 281 280 173 61 314 286 229 214 220 179 192 210 196 227 238 233 232 231 239 225 186 190 199 198 191 182 183 185 186 189 191 192 192 192 188 186 189 187 185 184 182 184 185 187 194 196 195 194 191 192 193 192 193 197 202 200 194 188 193 209 222 235 248 254 257 259
207 187 185 217 224 227 230 249 238 213 229 250 13 348 250 251 258 257 265 253 260 288 274 168 237 277 271 210 204 203 219 228 222 242 248 236 226 226 233 211 176 187 191 186 187 183 185 187 187 190 191 192 191 188 185 185 188 188 185 184 183 185 187 193 199 198 197 194 189 192 194 194 196 195 190 182 182 189 195 207 223 234 244 252 256 258
157 192 199 190 203 227 225 266 234 198 218 262 51 36 67 294 258 236 245 253 268 286 270 200 185 258 280 198 188 204 211 224 231 241 249 245 236 234 234 202 173 186 187 181 184 183 187 188 188 190 188 190 189 186 185 185 186 187 186 184 185 187 189 195 199 198 198 197 193 194 192 191 193 190 183 175 181 199 210 218 227 232 235 244 253 259
71 173 215 189 205 227 197 31 11 208 216 147 109 86 77 90 109 177 242 266 279 269 255 217 175 228 281 192 169 196 201 213 226 233 240 240 238 234 221 185 171 183 184 181 184 184 187 187 186 186 184 186 187 186 186 185 184 185 185 185 187 189 189 194 198 198 198 198 194 194 193 191 190 186 185 185 189 200 211 219 224 226 228 232 239 247
136 102 17 218 219 214 102 67 22 12 117 136 147 119 111 186 162 212 241 267 278 262 243 213 186 206 271 197 151 182 196 200 204 220 235 235 230 218 190 174 174 177 179 180 183 183 181 181 180 181 183 184 184 184 184 183 184 184 186 187 189 190 188 193 199 199 197 197 195 193 192 192 188 184 186 190 196 203 210 215 219 223 224 222 225 234
208 179 195 211 182 131 115 101 57 54 132 165 175 186 216 226 200 218 218 171 251 263 226 191 187 198 236 216 153 182 195 192 186 215 246 245 234 215 173 172 177 172 175 175 177 177 172 173 177 180 184 183 181 182 184 184 184 185 188 188 189 191 189 190 196 196 194 197 197 193 194 196 191 189 193 195 198 205 210 211 214 219 220 224 233 240
221 211 194 156 126 182 176 160 111 115 185 203 192 194 232 246 229 230 219 191 237 255 155 162 187 207 235 241 218 214 197 190 194 226 252 252 242 227 170 161 169 169 172 172 172 173 172 175 178 183 185 182 182 185 185 185 185 187 190 190 191 191 189 188 190 191 193 197 197 194 196 199 197 198 202 202 203 206 208 210 212 216 220 225 231 237
221 227 178 168 196 193 188 197 206 187 185 194 191 186 205 231 248 249 239 236 247 249 147 134 183 232 258 245 222 225 213 201 214 226 232 238 236 228 155 145 159 172 172 172 173 173 178 183 182 184 185 184 186 187 186 187 187 188 191 191 192 192 188 186 186 187 191 193 194 197 199 199 201 203 205 206 207 207 206 209 214 218 222 228 231 237
239 272 178 171 174 171 188 210 215 134 174 195 195 197 213 227 242 250 251 253 265 285 203 145 180 235 274 187 196 217 216 205 221 224 208 222 217 148 116 140 160 182 180 176 177 181 186 186 182 183 186 187 189 189 188 188 189 190 191 192 192 190 187 186 186 185 187 190 193 199 200 201 203 206 207 208 209 209 211 214 218 221 226 231 236 243
238 265 165 136 109 159 182 215 178 114 182 197 185 209 231 236 229 246 271 269 307 316 271 190 217 246 260 245 174 202 207 195 214 222 200 212 201 153 153 176 179 188 188 185 185 187 188 184 183 186 188 189 189 190 189 189 190 190 192 192 191 189 187 187 188 185 186 189 194 198 200 201 203 205 206 208 209 211 214 216 220 225 229 235 241 247
230 267 130 109 13 149 165 272 175 181 224 168 175 207 226 311 236 244 269 279 95 283 267 212 241 259 264 250 178 171 191 190 204 215 206 212 199 176 187 189 188 194 194 194 192 189 185 182 187 190 190 190 188 190 192 192 192 191 190 189 188 188 187 186 187 186 185 189 192 195 198 200 201 204 205 206 208 211 214 217 222 226 230 236 243 249
229 256 168 167 205 126 358 326 216 314 334 146 186 210 102 37 296 244 259 265 241 263 268 256 260 264 269 261 171 168 189 193 201 210 211 211 194 190 205 194 194 198 196 200 199 194 188 185 191 194 194 193 192 193 194 193 192 191 190 188 186 187 187 186 187 188 188 191 192 193 196 198 200 203 204 205 207 210 213 218 222 226 230 235 242 248
215 241 234 170 195 114 87 259 206 197 210 177 260 286 90 220 210 203 225 244 247 256 268 272 274 267 252 255 178 179 194 198 205 210 209 207 196 201 212 207 208 201 193 201 200 196 195 193 197 197 196 197 196 196 194 190 190 191 191 191 190 189 188 188 190 191 191 192 193 192 195 197 199 202 204 205 207 209 213 218 221 225 229 233 239 245
189 224 239 80 343 127 141 221 204 174 174 229 290 266 228 253 232 211 213 227 239 248 264 277 283 273 248 240 188 183 194 202 206 204 202 206 205 205 206 211 216 203 189 197 197 192 197 202 201 198 198 198 197 195 191 190 192 191 190 191 192 190 189 190 192 191 191 192 193 192 193 195 197 201 203 204 207 210 213 218 220 223 227 231 237 243
159 223 233 94 339 218 197 201 193 187 182 185 222 217 200 201 270 291 256 236 238 248 255 267 276 274 269 196 175 176 188 202 200 195 197 201 205 205 203 212 219 210 196 196 196 193 197 202 197 194 199 200 198 197 194 194 194 191 191 192 190 188 190 192 193 192 191 191 192 192 192 193 196 199 201 204 207 209 212 216 218 221 225 229 234 240
180 213 222 202 202 221 217 194 195 204 193 184 197 201 199 191 180 229 237 226 220 242 245 246 263 269 272 105 145 156 160 192 190 184 186 190 202 206 206 216 221 216 208 202 198 197 198 197 185 184 190 191 193 193 191 192 193 191 192 192 189 190 193 194 193 192 192 191 192 192 192 193 195 198 199 201 204 207 209 213 216 219 223 227 232 237
177 177 222 230 223 224 224 176 209 243 257 256 229 208 206 192 185 208 219 213 193 219 244 245 253 265 257 104 107 116 129 182 196 187 195 197 195 197 205 216 222 218 213 209 205 205 206 194 171 174 180 183 189 190 188 190 191 191 190 188 189 193 196 196 194 193 192 191 191 191 190 192 194 195 197 199 201 204 207 210 214 217 221 225 230 233
82 106 225 242 257 269 276 110 46 46 151 257 250 222 218 208 205 217 221 228 206 199 228 237 242 260 265 109 120 224 177 195 207 204 221 221 197 200 212 213 215 217 215 214 216 216 208 183 157 171 182 187 193 192 191 191 190 191 190 188 190 193 194 195 194 193 192 191 190 189 189 191 192 193 195 197 199 202 204 206 210 215 219 224 227 229
184 197 213 234 252 257 254 229 218 192 189 221 231 219 222 222 218 226 236 259 241 228 234 244 247 256 257 174 236 245 203 194 216 214 222 227 209 206 214 209 208 212 210 212 219 221 212 186 173 187 192 192 192 192 195 193 191 193 192 190 192 191 189 193 194 192 191 189 187 186 187 189 190 192 193 195 197 200 201 203 208 213 218 221 225 228
206 203 196 215 232 227 230 235 227 165 176 208 230 222 220 219 213 219 229 222 236 237 237 243 252 257 265 275 272 260 220 196 222 212 202 218 221 215 211 204 203 208 209 210 216 220 212 192 188 199 199 196 192 192 195 194 193 195 193 192 193 189 186 191 193 191 189 187 185 184 186 187 189 191 193 193 195 197 199 204 208 212 216 220 222 227
244 242 211 220 235 231 234 245 257 254 185 187 213 217 214 213 211 214 225 225 234 241 238 240 247 254 261 269 273 273 265 253 253 245 217 208 217 218 212 204 203 209 211 211 219 221 208 194 201 205 202 198 194 193 193 193 193 192 192 193 192 187 186 189 190 189 188 186 184 184 184 186 188 191 192 191 193 195 198 204 209 211 214 220 223 228
334 259 235 238 246 248 251 256 259 260 246 223 221 219 212 211 209 210 222 228 231 241 245 239 243 250 252 256 267 274 273 266 265 266 262 244 230 216 202 211 219 220 217 218 224 222 210 211 213 207 203 200 193 191 190 192 193 192 192 192 188 186 189 189 188 187 186 185 184 184 184 186 188 189 189 189 190 193 197 202 207 211 214 219 225 230
261 254 249 253 256 256 259 262 260 261 259 250 243 233 219 212 209 214 225 228 226 237 245 242 245 251 251 251 260 267 268 266 266 273 276 272 260 226 179 210 232 232 229 231 234 227 220 223 220 209 207 202 190 186 187 189 191 190 192 190 186 187 190 188 186 185 185 184 183 183 183 184 184 184 185 186 188 192 196 200 205 210 214 219 223 228
230 251 245 251 260 261 260 263 262 263 265 263 258 249 238 228 224 227 231 226 224 235 241 244 251 256 258 257 256 259 265 270 278 280 275 267 261 246 225 246 260 257 248 243 242 237 230 229 226 220 216 203 184 185 188 188 189 189 189 186 185 189 189 187 185 185 184 183 183 182 181 180 181 182 184 186 188 192 196 199 205 209 213 217 220 226
210 230 235 245 261 258 253 256 257 257 260 263 263 263 263 257 248 243 237 222 226 238 242 245 253 260 262 259 257 260 267 274 279 276 269 264 265 266 268 275 275 271 266 260 251 243 235 231 230 229 226 213 197 192 188 186 186 186 185 184 186 189 188 185 185 184 183 182 180 179 178 178 179 181 184 186 189 193 196 200 205 208 211 214 218 225
204 228 237 238 249 247 242 245 249 251 256 260 266 268 260 255 255 252 246 235 232 239 246 249 251 252 252 255 260 267 270 270 268 267 267 268 270 273 277 275 270 268 270 269 261 252 241 233 229 229 229 222 207 197 192 186 181 179 182 186 188 187 185 184 183 182 181 179 177 176 176 178 178 180 183 186 189 194 197 201 204 206 209 211 216 222
199 221 225 221 237 245 238 241 247 250 254 252 245 243 243 246 252 257 258 254 243 237 240 242 238 238 246 257 267 270 267 262 259 259 263 267 271 274 271 265 264 266 268 267 264 260 252 240 232 229 228 224 213 208 204 196 188 185 187 188 187 183 181 182 181 180 178 176 175 175 176 177 178 179 182 187 191 195 198 201 203 205 208 210 214 220
206 216 224 222 232 243 238 242 248 243 237 233 227 230 238 247 251 250 250 250 248 245 245 246 246 247 250 254 257 260 261 260 259 258 261 266 271 273 268 264 265 267 269 268 265 262 258 252 243 231 226 224 219 213 208 200 194 192 190 186 182 179 179 179 178 177 175 174 175 175 176 177 178 179 182 187 191 194 197 200 202 203 206 208 212 216
216 219 227 225 233 245 241 240 242 232 228 233 230 225 235 243 245 248 252 255 257 256 250 249 249 250 253 255 255 256 258 261 266 269 269 269 268 264 263 267 269 271 272 270 268 265 260 257 254 238 222 221 217 206 196 193 192 188 184 181 179 178 178 177 175 175 174 173 174 175 176 177 177 179 183 187 190 192 196 198 199 201 204 207 210 214
223 223 223 221 230 240 227 215 227 239 222 200 205 214 230 239 244 252 257 253 249 249 249 250 251 252 255 256 254 255 258 264 272 273 269 269 266 256 250 256 265 270 269 267 266 266 264 259 247 227 212 207 201 192 188 190 188 182 178 178 178 177 177 176 174 174 174 173 174 175 176 177 177 179 183 186 188 191 194 196 197 199 202 204 206 212
220 222 222 224 223 223 227 223 230 258 281 153 183 211 222 222 218 228 241 239 237 245 251 251 252 251 250 252 254 257 264 272 273 268 265 265 263 257 249 249 257 263 266 267 266 263 261 248 224 212 203 192 186 187 188 187 182 176 173 174 175 175 175 175 174 174 174 173 174 175 177 178 179 180 183 185 187 189 192 194 195 197 199 200 202 211
215 216 217 225 217 211 231 235 227 244 236 195 208 224 226 224 222 230 245 243 211 243 252 247 246 246 245 250 256 259 262 262 256 258 262 263 263 258 248 247 251 253 258 263 261 255 238 217 210 204 193 182 183 189 187 181 177 173 169 170 172 172 173 175 175 175 174 174 175 176 178 180 181 182 183 184 187 189 190 191 193 196 198 199 203 213
218 219 218 230 230 215 230 237 221 231 224 193 217 232 236 239 239 244 256 241 174 226 246 245 245 248 249 252 254 251 243 233 244 250 254 261 269 269 250 246 246 246 252 255 251 247 223 201 195 190 182 179 184 187 183 178 174 170 168 170 172 172 174 176 177 177 176 175 175 176 178 180 181 183 183 184 186 187 187 188 191 193 194 198 204 214
218 220 219 230 234 224 234 243 230 233 216 186 212 229 236 241 241 242 250 218 177 219 239 244 247 249 249 250 249 244 235 233 239 245 250 260 274 274 241 238 237 239 246 245 240 234 209 187 179 177 183 188 186 182 179 175 170 169 171 171 171 174 178 180 179 177 175 174 174 176 178 179 181 182 183 184 184 184 185 187 188 189 193 198 203 211
214 213 213 222 225 222 229 238 238 230 207 195 214 226 230 237 238 237 242 220 205 224 234 240 247 249 248 249 248 242 237 236 238 246 255 267 275 264 240 232 232 239 246 246 235 207 185 184 187 190 198 194 184 178 176 172 170 173 173 170 175 182 182 179 176 174 173 172 173 175 176 177 180 181 182 183 181 181 182 183 185 190 192 195 200 208
206 210 212 217 222 225 227 235 249 244 197 198 224 228 217 213 227 231 235 231 227 233 236 239 246 251 250 249 248 247 248 248 247 250 257 264 265 263 254 230 217 229 233 236 224 193 181 188 193 198 202 191 182 178 175 172 172 175 172 172 182 184 178 173 171 170 170 170 170 172 172 174 177 178 178 179 179 178 179 179 184 190 190 191 201 210
193 208 218 206 207 227 232 225 240 244 181 196 223 227 206 213 231 236 240 240 238 240 243 245 251 256 256 254 250 247 249 252 254 256 258 258 259 264 261 235 213 221 217 205 207 197 190 192 195 198 195 185 182 180 176 173 174 175 174 176 180 175 169 168 168 167 167 167 167 167 169 171 173 175 175 176 176 175 175 178 183 187 187 190 199 203
200 206 232 216 196 215 226 217 239 258 213 204 218 224 215 223 233 237 243 249 251 252 253 255 256 256 257 258 256 252 248 250 254 257 259 261 258 260 261 242 212 214 212 205 205 193 188 195 198 190 185 184 183 182 179 177 174 174 175 173 170 167 165 166 166 164 163 163 161 163 167 169 171 173 172 173 174 171 171 176 181 184 186 188 192 194
251 292 303 282 245 245 264 274 305 319 303 236 236 257 270 276 275 265 262 267 271 274 282 289 286 286 293 296 292 284 275 269 271 272 272 271 267 265 269 258 226 218 210 201 197 187 190 198 191 175 180 185 184 184 184 181 175 173 175 171 167 167 165 163 162 160 159 158 159 162 164 166 169 171 172 173 174 172 173 176 177 180 185 187 187 193
305 315 324 313 300 305 307 317 354 352 341 334 323 312 313 321 323 314 305 302 306 318 328 327 327 334 337 335 328 312 301 304 309 307 300 295 289 286 286 273 246 227 206 201 199 190 190 192 180 174 181 186 187 187 188 187 182 177 173 170 167 167 165 162 159 157 156 157 159 161 162 164 167 171 173 174 174 174 176 177 176 177 185 186 184 190
300 316 339 325 305 301 310 340 354 341 320 314 311 305 306 314 325 329 327 326 332 336 334 327 325 325 322 319 317 308 303 307 307 302 298 293 289 288 285 273 256 233 215 213 204 186 179 179 182 186 187 189 190 189 188 190 188 178 170 167 167 166 164 161 158 155 156 157 158 161 165 167 168 170 171 172 173 174 176 179 177 178 183 182 181 186
313 327 334 317 301 294 292 304 313 307 296 291 285 292 314 328 329 324 321 323 327 324 319 317 315 314 313 312 307 301 298 295 291 288 285 281 281 281 279 276 271 253 234 220 190 173 179 194 198 195 194 193 190 188 187 188 184 175 169 167 167 165 163 161 159 157 156 158 160 162 166 167 167 168 169 171 174 175 177 179 178 179 183 181 178 178
300 303 306 301 296 293 287 290 299 300 294 292 294 335 353 338 323 319 317 317 317 312 308 305 300 299 303 302 300 300 294 287 285 283 279 278 281 280 278 281 278 259 236 212 189 186 195 206 203 198 200 195 186 184 185 183 177 172 169 168 168 166 163 160 159 157 156 159 160 162 164 165 166 168 170 172 174 175 179 180 177 177 181 179 173 171
275 278 284 292 288 283 284 296 309 307 299 300 314 328 330 322 317 316 314 311 308 304 302 300 297 297 295 293 295 297 291 286 286 284 280 278 276 274 276 276 269 251 233 214 200 198 206 213 208 202 201 191 182 181 183 178 172 172 171 170 170 169 164 159 157 156 157 160 161 161 163 164 165 168 171 172 171 172 177 178 176 175 175 173 172 174
254 259 266 273 273 275 285 296 303 300 294 298 309 312 312 312 309 306 304 302 299 297 296 295 294 293 290 286 284 282 280 282 285 283 280 275 269 268 270 267 261 253 242 220 200 202 212 212 204 200 197 188 182 181 180 175 171 172 173 173 173 172 167 161 156 155 157 161 162 163 164 165 165 168 171 171 171 170 170 170 173 177 178 174 173 172